| time (UTC) | temp F | wind direction | speed MPH | gust MPH | rain 1hr in | rain 24hr in | rain mn in | humidity % | barometer mb |
| 20260902141559 | 83 | 293 | 0.0 | 6.0 | 0.00 | 0.00 | 0.00 | 55 | 1017.6 |
| 20260902141055 | 83 | 268 | 2.0 | 4.0 | 0.00 | 0.00 | 0.00 | 55 | 1017.6 |
| 20260902140549 | 82 | 230 | 2.0 | 3.0 | 0.00 | 0.00 | 0.00 | 56 | 1017.6 |
| 20260902140045 | 82 | 183 | 2.0 | 7.0 | 0.00 | 0.00 | 0.00 | 56 | 1017.7 |
| 20260902135544 | 82 | 242 | 1.0 | 3.0 | 0.00 | 0.00 | 0.00 | 57 | 1017.7 |
| 20260902135044 | 81 | 224 | 1.0 | 6.0 | 0.00 | 0.00 | 0.00 | 57 | 1017.5 |
| 20260902134541 | 81 | 124 | 2.0 | 4.0 | 0.00 | 0.00 | 0.00 | 58 | 1017.7 |
| 20260902134040 | 80 | 209 | 4.0 | 6.0 | 0.00 | 0.00 | 0.00 | 58 | 1017.4 |
| 20260902133535 | 80 | 260 | 0.0 | 5.0 | 0.00 | 0.00 | 0.00 | 59 | 1017.4 |
| 20260902133035 | 79 | 209 | 2.0 | 4.0 | 0.00 | 0.00 | 0.00 | 60 | 1017.5 |
| 20260902132531 | 79 | 218 | 3.0 | 6.0 | 0.00 | 0.00 | 0.00 | 60 | 1017.4 |
| 20260902132026 | 78 | 299 | 0.0 | 3.0 | 0.00 | 0.00 | 0.00 | 61 | 1017.5 |
| 20260902131522 | 78 | 285 | 2.0 | 4.0 | 0.00 | 0.00 | 0.00 | 62 | 1017.5 |
| 20260902131022 | 77 | 247 | 1.0 | 4.0 | 0.00 | 0.00 | 0.00 | 62 | 1017.6 |
| 20260902130518 | 77 | 283 | 0.0 | 4.0 | 0.00 | 0.00 | 0.00 | 63 | 1017.2 |
| 20260902130013 | 76 | 189 | 3.0 | 3.0 | 0.00 | 0.00 | 0.00 | 63 | 1017.5 |
| 20260902125509 | 76 | 255 | 1.0 | 4.0 | 0.00 | 0.00 | 0.00 | 64 | 1017.3 |
| 20260902125004 | 75 | 241 | 2.0 | 4.0 | 0.00 | 0.00 | 0.00 | 65 | 1017.4 |
| 20260902124501 | 75 | 314 | 0.0 | 3.0 | 0.00 | 0.00 | 0.00 | 65 | 1017.3 |
| 20260902123955 | 75 | 264 | 0.0 | 2.0 | 0.00 | 0.00 | 0.00 | 65 | 1017.3 |
| 20260902123452 | 75 | 221 | 2.0 | 4.0 | 0.00 | 0.00 | 0.00 | 65 | 1017.4 |
| 20260902122950 | 75 | 199 | 3.0 | 5.0 | 0.00 | 0.00 | 0.00 | 65 | 1017.1 |
| 20260902122446 | 75 | 209 | 2.0 | 4.0 | 0.00 | 0.00 | 0.00 | 65 | 1017.1 |
| 20260902121941 | 74 | 229 | 0.0 | 2.0 | 0.00 | 0.00 | 0.00 | 65 | 1017.1 |
| 20260902121441 | 74 | 202 | 1.0 | 3.0 | 0.00 | 0.00 | 0.00 | 65 | 1017.3 |
| 20260902120936 | 75 | 233 | 0.0 | 2.0 | 0.00 | 0.00 | 0.00 | 64 | 1017.1 |
| 20260902120433 | 75 | 293 | 0.0 | 2.0 | 0.00 | 0.00 | 0.00 | 64 | 1017.0 |
| 20260902115932 | 75 | 282 | 0.0 | 4.0 | 0.00 | 0.00 | 0.00 | 63 | 1017.2 |
| 20260902115428 | 75 | 225 | 2.0 | 3.0 | 0.00 | 0.00 | 0.00 | 63 | 1017.1 |
| 20260902114925 | 76 | 264 | 1.0 | 3.0 | 0.00 | 0.00 | 0.00 | 62 | 1017.1 |
| 20260902114421 | 75 | 230 | 2.0 | 4.0 | 0.00 | 0.00 | 0.00 | 63 | 1017.1 |
| 20260902113921 | 75 | 191 | 0.0 | 2.0 | 0.00 | 0.00 | 0.00 | 63 | 1017.1 |
| 20260902113417 | 75 | 182 | 0.0 | 3.0 | 0.00 | 0.00 | 0.00 | 63 | 1016.8 |
| 20260902112916 | 75 | 304 | 0.0 | 2.0 | 0.00 | 0.00 | 0.00 | 63 | 1017.0 |
| 20260902112412 | 75 | 279 | 0.0 | 2.0 | 0.00 | 0.00 | 0.00 | 64 | 1017.1 |
| 20260902111908 | 75 | 224 | 0.0 | 2.0 | 0.00 | 0.00 | 0.00 | 63 | 1016.6 |
| 20260902111404 | 75 | 249 | 1.0 | 3.0 | 0.00 | 0.00 | 0.00 | 63 | 1016.6 |
| 20260902110900 | 75 | 230 | 2.0 | 2.0 | 0.00 | 0.00 | 0.00 | 63 | 1016.8 |
| 20260902110355 | 75 | 335 | 1.0 | 1.0 | 0.00 | 0.00 | 0.00 | 62 | 1016.6 |
| 20260902105855 | 75 | 10 | 0.0 | 2.0 | 0.00 | 0.00 | 0.00 | 62 | 1017.0 |
| 20260902105350 | 76 | 232 | 0.0 | 3.0 | 0.00 | 0.00 | 0.00 | 61 | 1016.5 |
| 20260902104845 | 76 | 315 | 1.0 | 3.0 | 0.00 | 0.00 | 0.00 | 61 | 1016.8 |
| 20260902104342 | 76 | 185 | 1.0 | 3.0 | 0.00 | 0.00 | 0.00 | 61 | 1016.6 |
| 20260902103841 | 76 | 196 | 1.0 | 3.0 | 0.00 | 0.00 | 0.00 | 60 | 1016.6 |
| 20260902103336 | 76 | 225 | 2.0 | 3.0 | 0.00 | 0.00 | 0.00 | 60 | 1016.6 |
| 20260902102831 | 76 | 224 | 0.0 | 2.0 | 0.00 | 0.00 | 0.00 | 60 | 1016.6 |
| 20260902102329 | 76 | 244 | 2.0 | 5.0 | 0.00 | 0.00 | 0.00 | 60 | 1016.7 |
| 20260902101824 | 76 | 285 | 1.0 | 2.0 | 0.00 | 0.00 | 0.00 | 60 | 1016.5 |
| 20260902101319 | 76 | 286 | 1.0 | 2.0 | 0.00 | 0.00 | 0.00 | 60 | 1016.6 |
| 20260902100819 | 76 | 230 | 2.0 | 3.0 | 0.00 | 0.00 | 0.00 | 60 | 1016.6 |
| 20260902100318 | 76 | 259 | 3.0 | 3.0 | 0.00 | 0.00 | 0.00 | 59 | 1016.3 |
| 20260902095814 | 76 | 262 | 1.0 | 4.0 | 0.00 | 0.00 | 0.00 | 59 | 1016.5 |
| 20260902095314 | 76 | 272 | 3.0 | 3.0 | 0.00 | 0.00 | 0.00 | 59 | 1016.3 |
| 20260902094808 | 76 | 260 | 2.0 | 3.0 | 0.00 | 0.00 | 0.00 | 59 | 1016.6 |
| 20260902094304 | 76 | 0 | 0.0 | 3.0 | 0.00 | 0.00 | 0.00 | 59 | 1016.5 |
| 20260902093804 | 76 | 193 | 2.0 | 3.0 | 0.00 | 0.00 | 0.00 | 59 | 1016.3 |
| 20260902093259 | 76 | 259 | 2.0 | 2.0 | 0.00 | 0.00 | 0.00 | 58 | 1016.5 |
| 20260902092758 | 77 | 242 | 1.0 | 2.0 | 0.00 | 0.00 | 0.00 | 58 | 1016.3 |
| 20260902092254 | 76 | 274 | 1.0 | 3.0 | 0.00 | 0.00 | 0.00 | 58 | 1016.3 |
| 20260902091753 | 76 | 242 | 3.0 | 4.0 | 0.00 | 0.00 | 0.00 | 58 | 1016.4 |
| 20260902091249 | 76 | 297 | 0.0 | 2.0 | 0.00 | 0.00 | 0.00 | 58 | 1016.4 |
| 20260902090746 | 77 | 253 | 0.0 | 2.0 | 0.00 | 0.00 | 0.00 | 58 | 1016.4 |
| 20260902090245 | 77 | 269 | 0.0 | 3.0 | 0.00 | 0.00 | 0.00 | 58 | 1016.4 |
| 20260902085744 | 77 | 218 | 0.0 | 3.0 | 0.00 | 0.00 | 0.00 | 57 | 1016.4 |
| 20260902085240 | 77 | 236 | 3.0 | 3.0 | 0.00 | 0.00 | 0.00 | 57 | 1016.3 |
| 20260902084735 | 77 | 267 | 0.0 | 2.0 | 0.00 | 0.00 | 0.00 | 57 | 1016.2 |
| 20260902084232 | 77 | 229 | 0.0 | 3.0 | 0.00 | 0.00 | 0.00 | 56 | 1016.2 |
| 20260902083731 | 77 | 260 | 1.0 | 2.0 | 0.00 | 0.00 | 0.00 | 56 | 1016.4 |
| 20260902083226 | 78 | 242 | 1.0 | 3.0 | 0.00 | 0.00 | 0.00 | 56 | 1016.1 |
| 20260902082721 | 78 | 242 | 1.0 | 2.0 | 0.00 | 0.00 | 0.00 | 56 | 1016.1 |
| 20260902082218 | 78 | 278 | 1.0 | 4.0 | 0.00 | 0.00 | 0.00 | 55 | 1016.1 |
| 20260902081714 | 78 | 218 | 0.0 | 2.0 | 0.00 | 0.00 | 0.00 | 55 | 1016.2 |
| 20260902081209 | 78 | 267 | 1.0 | 2.0 | 0.00 | 0.00 | 0.00 | 55 | 1016.0 |
| 20260902080704 | 78 | 275 | 0.0 | 2.0 | 0.00 | 0.00 | 0.00 | 55 | 1015.9 |
| 20260902080200 | 78 | 246 | 0.0 | 1.0 | 0.00 | 0.00 | 0.00 | 54 | 1016.2 |
| 20260902075700 | 78 | 209 | 0.0 | 4.0 | 0.00 | 0.00 | 0.00 | 54 | 1016.3 |
| 20260902075156 | 79 | 312 | 0.0 | 3.0 | 0.00 | 0.00 | 0.00 | 54 | 1016.4 |
| 20260902074656 | 79 | 269 | 0.0 | 2.0 | 0.00 | 0.00 | 0.00 | 54 | 1016.3 |
| 20260902074151 | 79 | 319 | 0.0 | 2.0 | 0.00 | 0.00 | 0.00 | 53 | 1016.2 |
| 20260902073647 | 79 | 333 | 0.0 | 2.0 | 0.00 | 0.00 | 0.00 | 53 | 1016.3 |
| 20260902073143 | 79 | 254 | 2.0 | 2.0 | 0.00 | 0.00 | 0.00 | 53 | 1016.4 |
| 20260902072639 | 79 | 343 | 0.0 | 2.0 | 0.00 | 0.00 | 0.00 | 53 | 1016.3 |
| 20260902072135 | 79 | 283 | 2.0 | 2.0 | 0.00 | 0.00 | 0.00 | 52 | 1016.0 |
| 20260902071631 | 80 | 347 | 0.0 | 2.0 | 0.00 | 0.00 | 0.00 | 52 | 1016.0 |
| 20260902071126 | 80 | 135 | 3.0 | 3.0 | 0.00 | 0.00 | 0.00 | 51 | 1016.1 |
| 20260902070622 | 80 | 12 | 1.0 | 2.0 | 0.00 | 0.00 | 0.00 | 51 | 1016.0 |
| 20260902070116 | 80 | 305 | 1.0 | 2.0 | 0.00 | 0.00 | 0.00 | 51 | 1016.2 |
| 20260902065615 | 80 | 297 | 0.0 | 1.0 | 0.00 | 0.00 | 0.00 | 51 | 1016.2 |
| 20260902065111 | 80 | 342 | 1.0 | 3.0 | 0.00 | 0.00 | 0.00 | 51 | 1016.2 |
| 20260902064606 | 80 | 333 | 1.0 | 2.0 | 0.00 | 0.00 | 0.00 | 51 | 1016.1 |
| 20260902064101 | 80 | 232 | 0.0 | 2.0 | 0.00 | 0.00 | 0.00 | 50 | 1016.1 |
| 20260902063556 | 80 | 15 | 0.0 | 2.0 | 0.00 | 0.00 | 0.00 | 50 | 1015.9 |
| 20260902063051 | 80 | 269 | 0.0 | 2.0 | 0.00 | 0.00 | 0.00 | 50 | 1016.2 |
| 20260902062549 | 80 | 256 | 2.0 | 2.0 | 0.00 | 0.00 | 0.00 | 49 | 1016.3 |
| 20260902062045 | 80 | 78 | 2.0 | 2.0 | 0.00 | 0.00 | 0.00 | 49 | 1015.9 |
| 20260902061545 | 80 | 31 | 0.0 | 2.0 | 0.00 | 0.00 | 0.00 | 49 | 1016.2 |
| 20260902061041 | 80 | 320 | 1.0 | 2.0 | 0.00 | 0.00 | 0.00 | 49 | 1016.2 |
| 20260902060537 | 80 | 274 | 0.0 | 3.0 | 0.00 | 0.00 | 0.00 | 49 | 1015.9 |
| 20260902060033 | 80 | 353 | 1.0 | 2.0 | 0.00 | 0.00 | 0.00 | 48 | 1015.8 |
| 20260902055529 | 81 | 320 | 0.0 | 2.0 | 0.00 | 0.00 | 0.00 | 48 | 1016.1 |
| 20260902055024 | 80 | 166 | 2.0 | 2.0 | 0.00 | 0.00 | 0.00 | 48 | 1016.0 |
| 20260902054519 | 80 | 22 | 0.0 | 2.0 | 0.00 | 0.00 | 0.00 | 47 | 1015.9 |
| 20260902054015 | 80 | 38 | 1.0 | 2.0 | 0.00 | 0.00 | 0.00 | 47 | 1016.1 |
| 20260902053510 | 80 | 1 | 0.0 | 1.0 | 0.00 | 0.00 | 0.00 | 47 | 1015.9 |
| 20260902053009 | 80 | 54 | 2.0 | 2.0 | 0.00 | 0.00 | 0.00 | 47 | 1016.0 |
| 20260902052504 | 80 | 54 | 1.0 | 2.0 | 0.00 | 0.00 | 0.00 | 47 | 1015.9 |
| 20260902052000 | 80 | 59 | 0.0 | 2.0 | 0.00 | 0.00 | 0.00 | 47 | 1016.1 |
| 20260902051459 | 80 | 50 | 0.0 | 2.0 | 0.00 | 0.00 | 0.00 | 47 | 1016.1 |
| 20260902050958 | 80 | 346 | 0.0 | 1.0 | 0.00 | 0.00 | 0.00 | 47 | 1015.9 |
| 20260902050459 | 80 | 337 | 0.0 | 1.0 | 0.00 | 0.00 | 0.00 | 47 | 1016.1 |
| 20260902045954 | 80 | 352 | 0.0 | 1.0 | 0.00 | 0.00 | 0.00 | 46 | 1016.0 |
| 20260902045449 | 80 | 30 | 0.0 | 1.0 | 0.00 | 0.00 | 0.00 | 46 | 1016.2 |
| 20260902044946 | 81 | 52 | 0.0 | 2.0 | 0.00 | 0.00 | 0.00 | 46 | 1016.3 |
| 20260902044441 | 81 | 22 | 0.0 | 1.0 | 0.00 | 0.00 | 0.00 | 45 | 1016.0 |
| 20260902043936 | 81 | 326 | 0.0 | 1.0 | 0.00 | 0.00 | 0.00 | 45 | 1016.0 |
| 20260902043436 | 81 | 34 | 0.0 | 2.0 | 0.00 | 0.00 | 0.00 | 45 | 1015.9 |
| 20260902042932 | 81 | 322 | 0.0 | 2.0 | 0.00 | 0.00 | 0.00 | 45 | 1015.8 |
| 20260902042431 | 82 | 323 | 0.0 | 1.0 | 0.00 | 0.00 | 0.00 | 44 | 1016.0 |
| 20260902041926 | 82 | 41 | 1.0 | 2.0 | 0.00 | 0.00 | 0.00 | 44 | 1016.1 |
| 20260902041421 | 82 | 325 | 1.0 | 3.0 | 0.00 | 0.00 | 0.00 | 43 | 1016.0 |
| 20260902040920 | 82 | 50 | 0.0 | 2.0 | 0.00 | 0.00 | 0.00 | 43 | 1016.0 |
| 20260902040415 | 82 | 30 | 0.0 | 2.0 | 0.00 | 0.00 | 0.00 | 43 | 1016.0 |
| 20260902035914 | 82 | 18 | 0.0 | 1.0 | 0.00 | 0.00 | 0.00 | 44 | 1015.9 |
| 20260902035409 | 82 | 347 | 1.0 | 2.0 | 0.00 | 0.00 | 0.00 | 43 | 1016.2 |
| 20260902034908 | 82 | 6 | 0.0 | 2.0 | 0.00 | 0.00 | 0.00 | 43 | 1016.1 |
| 20260902034403 | 82 | 0 | 1.0 | 2.0 | 0.00 | 0.00 | 0.00 | 43 | 1015.8 |
| 20260902033902 | 83 | 316 | 0.0 | 2.0 | 0.00 | 0.00 | 0.00 | 43 | 1016.0 |
| 20260902033357 | 83 | 322 | 0.0 | 2.0 | 0.00 | 0.00 | 0.00 | 43 | 1016.0 |
| 20260902032856 | 83 | 329 | 1.0 | 2.0 | 0.00 | 0.00 | 0.00 | 42 | 1015.8 |
| 20260902032351 | 83 | 343 | 0.0 | 2.0 | 0.00 | 0.00 | 0.00 | 42 | 1016.0 |
| 20260902031851 | 83 | 0 | 1.0 | 2.0 | 0.00 | 0.00 | 0.00 | 42 | 1015.9 |
| 20260902031347 | 83 | 8 | 0.0 | 1.0 | 0.00 | 0.00 | 0.00 | 42 | 1015.9 |
| 20260902030842 | 83 | 342 | 2.0 | 2.0 | 0.00 | 0.00 | 0.00 | 42 | 1015.9 |
| 20260902030337 | 84 | 343 | 1.0 | 2.0 | 0.00 | 0.00 | 0.00 | 41 | 1015.7 |
| 20260902025836 | 84 | 16 | 0.0 | 1.0 | 0.00 | 0.00 | 0.00 | 41 | 1015.6 |
| 20260902025332 | 84 | 352 | 0.0 | 1.0 | 0.00 | 0.00 | 0.00 | 41 | 1015.6 |
| 20260902024832 | 84 | 32 | 0.0 | 1.0 | 0.00 | 0.00 | 0.00 | 41 | 1015.7 |
| 20260902024328 | 85 | 55 | 0.0 | 1.0 | 0.00 | 0.00 | 0.00 | 40 | 1015.6 |
| 20260902023823 | 85 | 25 | 0.0 | 1.0 | 0.00 | 0.00 | 0.00 | 40 | 1015.6 |
| 20260902023318 | 85 | 60 | 0.0 | 1.0 | 0.00 | 0.00 | 0.00 | 40 | 1015.4 |
| 20260902022817 | 85 | 40 | 1.0 | 1.0 | 0.00 | 0.00 | 0.00 | 39 | 1015.3 |
| 20260902022312 | 86 | 347 | 0.0 | 1.0 | 0.00 | 0.00 | 0.00 | 39 | 1015.3 |
| 20260902021808 | 86 | 350 | 1.0 | 2.0 | 0.00 | 0.00 | 0.00 | 38 | 1015.2 |
| 20260902021303 | 86 | 25 | 0.0 | 1.0 | 0.00 | 0.00 | 0.00 | 38 | 1015.1 |
| 20260902020759 | 87 | 353 | 0.0 | 1.0 | 0.00 | 0.00 | 0.00 | 37 | 1014.9 |
| 20260902020255 | 87 | 354 | 1.0 | 1.0 | 0.00 | 0.00 | 0.00 | 37 | 1015.0 |
| 20260902015749 | 87 | 48 | 0.0 | 2.0 | 0.00 | 0.00 | 0.00 | 37 | 1015.2 |
| 20260902015246 | 88 | 19 | 0.0 | 2.0 | 0.00 | 0.00 | 0.00 | 36 | 1015.0 |
| 20260902014742 | 88 | 51 | 1.0 | 2.0 | 0.00 | 0.00 | 0.00 | 36 | 1014.8 |
| 20260902014238 | 89 | 41 | 1.0 | 2.0 | 0.00 | 0.00 | 0.00 | 35 | 1014.8 |
| 20260902013736 | 89 | 50 | 1.0 | 2.0 | 0.00 | 0.00 | 0.00 | 35 | 1014.9 |
| 20260902013232 | 90 | 3 | 2.0 | 2.0 | 0.00 | 0.00 | 0.00 | 34 | 1014.9 |
| 20260902012727 | 90 | 5 | 0.0 | 2.0 | 0.00 | 0.00 | 0.00 | 34 | 1014.7 |
| 20260902012223 | 90 | 343 | 0.0 | 2.0 | 0.00 | 0.00 | 0.00 | 34 | 1014.7 |
| 20260902011719 | 90 | 347 | 1.0 | 2.0 | 0.00 | 0.00 | 0.00 | 33 | 1014.6 |
| 20260902011218 | 91 | 73 | 2.0 | 2.0 | 0.00 | 0.00 | 0.00 | 33 | 1014.7 |
| 20260902010717 | 91 | 164 | 0.0 | 2.0 | 0.00 | 0.00 | 0.00 | 33 | 1014.7 |
| 20260902010214 | 91 | 337 | 1.0 | 1.0 | 0.00 | 0.00 | 0.00 | 33 | 1014.6 |
| 20260902005712 | 92 | 358 | 0.0 | 2.0 | 0.00 | 0.00 | 0.00 | 32 | 1014.6 |
| 20260902005208 | 92 | 60 | 0.0 | 1.0 | 0.00 | 0.00 | 0.00 | 32 | 1014.6 |
| 20260902004707 | 93 | 48 | 1.0 | 2.0 | 0.00 | 0.00 | 0.00 | 31 | 1014.7 |
| 20260902004202 | 93 | 297 | 1.0 | 2.0 | 0.00 | 0.00 | 0.00 | 30 | 1014.6 |
| 20260902003658 | 94 | 51 | 1.0 | 2.0 | 0.00 | 0.00 | 0.00 | 29 | 1014.6 |
| 20260902003153 | 95 | 305 | 1.0 | 2.0 | 0.00 | 0.00 | 0.00 | 29 | 1014.7 |
| 20260902002649 | 95 | 25 | 0.0 | 2.0 | 0.00 | 0.00 | 0.00 | 29 | 1014.6 |
| 20260902002149 | 96 | 343 | 0.0 | 2.0 | 0.00 | 0.00 | 0.00 | 29 | 1014.6 |
| 20260902001644 | 97 | 14 | 0.0 | 3.0 | 0.00 | 0.00 | 0.00 | 28 | 1014.7 |
| 20260902001143 | 97 | 62 | 0.0 | 1.0 | 0.00 | 0.00 | 0.00 | 28 | 1014.8 |
| 20260902000639 | 98 | 342 | 1.0 | 2.0 | 0.00 | 0.00 | 0.00 | 27 | 1014.7 |
| 20260902000134 | 99 | 207 | 0.0 | 3.0 | 0.00 | 0.00 | 0.00 | 26 | 1015.0 |
| 20260901235633 | 100 | 31 | 0.0 | 8.0 | 0.00 | 0.00 | 0.00 | 25 | 1014.8 |
| 20260901235129 | 100 | 89 | 0.0 | 6.0 | 0.00 | 0.00 | 0.00 | 25 | 1014.7 |
| 20260901234628 | 100 | 0 | 0.0 | 5.0 | 0.00 | 0.00 | 0.00 | 25 | 1014.7 |
| 20260901234123 | 101 | 206 | 4.0 | 6.0 | 0.00 | 0.00 | 0.00 | 24 | 1014.8 |
| 20260901233618 | 101 | 63 | 2.0 | 5.0 | 0.00 | 0.00 | 0.00 | 24 | 1014.9 |
| 20260901233114 | 101 | 204 | 3.0 | 6.0 | 0.00 | 0.00 | 0.00 | 24 | 1014.9 |
| 20260901232614 | 102 | 99 | 2.0 | 4.0 | 0.00 | 0.00 | 0.00 | 24 | 1014.8 |
| 20260901232109 | 102 | 357 | 0.0 | 3.0 | 0.00 | 0.00 | 0.00 | 24 | 1014.7 |
| 20260901231606 | 102 | 225 | 1.0 | 6.0 | 0.00 | 0.00 | 0.00 | 24 | 1014.7 |
| 20260901231102 | 102 | 232 | 0.0 | 3.0 | 0.00 | 0.00 | 0.00 | 24 | 1014.9 |
| 20260901230557 | 102 | 106 | 1.0 | 4.0 | 0.00 | 0.00 | 0.00 | 24 | 1014.9 |
| 20260901230057 | 102 | 318 | 0.0 | 4.0 | 0.00 | 0.00 | 0.00 | 24 | 1014.7 |
| 20260901225552 | 103 | 314 | 1.0 | 4.0 | 0.00 | 0.00 | 0.00 | 23 | 1014.7 |
| 20260901225052 | 103 | 220 | 0.0 | 6.0 | 0.00 | 0.00 | 0.00 | 23 | 1014.9 |
| 20260901224548 | 104 | 268 | 2.0 | 3.0 | 0.00 | 0.00 | 0.00 | 23 | 1014.9 |
| 20260901224044 | 104 | 308 | 2.0 | 4.0 | 0.00 | 0.00 | 0.00 | 23 | 1014.9 |
| 20260901223539 | 103 | 256 | 1.0 | 5.0 | 0.00 | 0.00 | 0.00 | 23 | 1014.7 |
| 20260901223035 | 103 | 219 | 2.0 | 9.0 | 0.00 | 0.00 | 0.00 | 23 | 1014.8 |
| 20260901222531 | 103 | 247 | 2.0 | 9.0 | 0.00 | 0.00 | 0.00 | 23 | 1014.9 |
| 20260901222026 | 103 | 340 | 1.0 | 6.0 | 0.00 | 0.00 | 0.00 | 24 | 1015.0 |
| 20260901221523 | 103 | 178 | 3.0 | 10.0 | 0.00 | 0.00 | 0.00 | 23 | 1014.8 |
| 20260901221018 | 103 | 172 | 0.0 | 5.0 | 0.00 | 0.00 | 0.00 | 23 | 1014.7 |
| 20260901220517 | 103 | 75 | 0.0 | 6.0 | 0.00 | 0.00 | 0.00 | 23 | 1014.8 |
| 20260901220016 | 103 | 44 | 1.0 | 5.0 | 0.00 | 0.00 | 0.00 | 24 | 1014.9 |
| 20260901215515 | 103 | 166 | 2.0 | 6.0 | 0.00 | 0.00 | 0.00 | 24 | 1014.9 |
| 20260901215015 | 104 | 341 | 2.0 | 9.0 | 0.00 | 0.00 | 0.00 | 23 | 1014.9 |
| 20260901214514 | 104 | 326 | 2.0 | 4.0 | 0.00 | 0.00 | 0.00 | 24 | 1014.9 |
| 20260901214008 | 103 | 269 | 1.0 | 5.0 | 0.00 | 0.00 | 0.00 | 24 | 1015.2 |
| 20260901213502 | 101 | 214 | 1.0 | 6.0 | 0.00 | 0.00 | 0.00 | 25 | 1014.9 |
| 20260901213002 | 102 | 243 | 4.0 | 4.0 | 0.00 | 0.00 | 0.00 | 24 | 1015.3 |
| 20260901212457 | 103 | 247 | 5.0 | 6.0 | 0.00 | 0.00 | 0.00 | 24 | 1015.3 |
| 20260901211953 | 103 | 49 | 2.0 | 5.0 | 0.00 | 0.00 | 0.00 | 23 | 1015.1 |
| 20260901211449 | 104 | 177 | 3.0 | 3.0 | 0.00 | 0.00 | 0.00 | 23 | 1015.3 |
| 20260901210945 | 103 | 180 | 3.0 | 7.0 | 0.00 | 0.00 | 0.00 | 23 | 1015.4 |
| 20260901210440 | 103 | 114 | 2.0 | 12.0 | 0.00 | 0.00 | 0.00 | 24 | 1015.3 |
| 20260901205936 | 102 | 198 | 10.0 | 13.0 | 0.00 | 0.00 | 0.00 | 24 | 1015.7 |
| 20260901205436 | 104 | 269 | 5.0 | 9.0 | 0.00 | 0.00 | 0.00 | 23 | 1015.6 |
| 20260901204931 | 104 | 342 | 1.0 | 6.0 | 0.00 | 0.00 | 0.00 | 23 | 1015.7 |
| 20260901204428 | 104 | 198 | 2.0 | 6.0 | 0.00 | 0.00 | 0.00 | 23 | 1015.9 |
| 20260901203927 | 103 | 154 | 2.0 | 4.0 | 0.00 | 0.00 | 0.00 | 24 | 1015.8 |
| 20260901203423 | 103 | 247 | 4.0 | 6.0 | 0.00 | 0.00 | 0.00 | 24 | 1015.9 |
| 20260901202918 | 104 | 49 | 2.0 | 7.0 | 0.00 | 0.00 | 0.00 | 23 | 1015.9 |
| 20260901202412 | 103 | 222 | 4.0 | 6.0 | 0.00 | 0.00 | 0.00 | 23 | 1015.9 |
| 20260901201908 | 102 | 221 | 4.0 | 6.0 | 0.00 | 0.00 | 0.00 | 24 | 1016.0 |
| 20260901201408 | 103 | 188 | 7.0 | 10.0 | 0.00 | 0.00 | 0.00 | 24 | 1016.1 |
| 20260901200908 | 102 | 183 | 2.0 | 9.0 | 0.00 | 0.00 | 0.00 | 25 | 1016.2 |
| 20260901200403 | 103 | 199 | 5.0 | 10.0 | 0.00 | 0.00 | 0.00 | 24 | 1016.2 |
| 20260901195902 | 102 | 226 | 1.0 | 8.0 | 0.00 | 0.00 | 0.00 | 25 | 1016.3 |
| 20260901195401 | 102 | 220 | 1.0 | 8.0 | 0.00 | 0.00 | 0.00 | 26 | 1016.4 |
| 20260901194856 | 101 | 263 | 2.0 | 5.0 | 0.00 | 0.00 | 0.00 | 26 | 1016.4 |
| 20260901194350 | 101 | 200 | 3.0 | 7.0 | 0.00 | 0.00 | 0.00 | 26 | 1016.5 |
| 20260901193847 | 101 | 208 | 2.0 | 8.0 | 0.00 | 0.00 | 0.00 | 26 | 1016.4 |
| 20260901193345 | 102 | 206 | 9.0 | 9.0 | 0.00 | 0.00 | 0.00 | 25 | 1016.5 |
| 20260901192840 | 101 | 255 | 2.0 | 6.0 | 0.00 | 0.00 | 0.00 | 27 | 1016.5 |
| 20260901192336 | 99 | 255 | 9.0 | 11.0 | 0.00 | 0.00 | 0.00 | 27 | 1016.6 |
| 20260901191832 | 99 | 205 | 2.0 | 9.0 | 0.00 | 0.00 | 0.00 | 28 | 1016.6 |
| 20260901191327 | 100 | 279 | 2.0 | 9.0 | 0.00 | 0.00 | 0.00 | 26 | 1017.0 |
| 20260901190823 | 100 | 207 | 4.0 | 9.0 | 0.00 | 0.00 | 0.00 | 26 | 1016.7 |
| 20260901190323 | 101 | 191 | 4.0 | 6.0 | 0.00 | 0.00 | 0.00 | 26 | 1016.7 |
| 20260901185821 | 100 | 255 | 5.0 | 8.0 | 0.00 | 0.00 | 0.00 | 27 | 1017.2 |
| 20260901185321 | 101 | 152 | 2.0 | 13.0 | 0.00 | 0.00 | 0.00 | 26 | 1016.8 |
| 20260901184816 | 100 | 162 | 1.0 | 6.0 | 0.00 | 0.00 | 0.00 | 28 | 1017.1 |
| 20260901184311 | 98 | 285 | 0.0 | 7.0 | 0.00 | 0.00 | 0.00 | 29 | 1016.8 |
| 20260901183807 | 101 | 238 | 4.0 | 7.0 | 0.00 | 0.00 | 0.00 | 27 | 1017.2 |
| 20260901183306 | 101 | 222 | 5.0 | 6.0 | 0.00 | 0.00 | 0.00 | 26 | 1017.2 |
| 20260901182803 | 101 | 168 | 3.0 | 10.0 | 0.00 | 0.00 | 0.00 | 26 | 1017.1 |
| 20260901182305 | 100 | 158 | 2.0 | 13.0 | 0.00 | 0.00 | 0.00 | 26 | 1017.4 |
| 20260901181756 | 99 | 342 | 2.0 | 11.0 | 0.00 | 0.00 | 0.00 | 29 | 1017.5 |
| 20260901181251 | 100 | 285 | 2.0 | 7.0 | 0.00 | 0.00 | 0.00 | 28 | 1017.6 |
| 20260901180751 | 101 | 129 | 3.0 | 5.0 | 0.00 | 0.00 | 0.00 | 26 | 1017.5 |
| 20260901180250 | 100 | 185 | 2.0 | 8.0 | 0.00 | 0.00 | 0.00 | 27 | 1017.6 |
| 20260901175749 | 99 | 265 | 2.0 | 6.0 | 0.00 | 0.00 | 0.00 | 28 | 1017.7 |
| 20260901175244 | 98 | 231 | 4.0 | 4.0 | 0.00 | 0.00 | 0.00 | 30 | 1017.7 |
| 20260901174739 | 98 | 66 | 2.0 | 7.0 | 0.00 | 0.00 | 0.00 | 30 | 1017.7 |
| 20260901174235 | 98 | 274 | 3.0 | 6.0 | 0.00 | 0.00 | 0.00 | 30 | 1017.7 |
| 20260901173731 | 98 | 255 | 4.0 | 7.0 | 0.00 | 0.00 | 0.00 | 31 | 1017.9 |
| 20260901173225 | 98 | 227 | 5.0 | 8.0 | 0.00 | 0.00 | 0.00 | 31 | 1017.7 |
| 20260901172722 | 98 | 215 | 3.0 | 14.0 | 0.00 | 0.00 | 0.00 | 31 | 1017.7 |
| 20260901172220 | 98 | 219 | 4.0 | 7.0 | 0.00 | 0.00 | 0.00 | 30 | 1017.9 |
| 20260901171718 | 97 | 306 | 2.0 | 9.0 | 0.00 | 0.00 | 0.00 | 32 | 1017.8 |
| 20260901171218 | 98 | 223 | 5.0 | 10.0 | 0.00 | 0.00 | 0.00 | 32 | 1018.0 |
| 20260901170717 | 98 | 219 | 4.0 | 6.0 | 0.00 | 0.00 | 0.00 | 32 | 1018.0 |
| 20260901170212 | 97 | 199 | 2.0 | 9.0 | 0.00 | 0.00 | 0.00 | 33 | 1018.2 |
| 20260901165711 | 97 | 278 | 2.0 | 6.0 | 0.00 | 0.00 | 0.00 | 33 | 1018.3 |
| 20260901165206 | 96 | 237 | 4.0 | 8.0 | 0.00 | 0.00 | 0.00 | 33 | 1018.1 |
| 20260901164702 | 96 | 228 | 7.0 | 8.0 | 0.00 | 0.00 | 0.00 | 33 | 1018.1 |
| 20260901164157 | 96 | 230 | 5.0 | 8.0 | 0.00 | 0.00 | 0.00 | 33 | 1018.3 |
| 20260901163653 | 96 | 215 | 5.0 | 8.0 | 0.00 | 0.00 | 0.00 | 34 | 1018.5 |
| 20260901163151 | 95 | 241 | 8.0 | 10.0 | 0.00 | 0.00 | 0.00 | 35 | 1018.2 |
| 20260901162647 | 95 | 233 | 5.0 | 10.0 | 0.00 | 0.00 | 0.00 | 34 | 1018.3 |
| 20260901162146 | 94 | 226 | 2.0 | 7.0 | 0.00 | 0.00 | 0.00 | 34 | 1018.4 |
| 20260901161645 | 94 | 194 | 5.0 | 11.0 | 0.00 | 0.00 | 0.00 | 35 | 1018.5 |
| 20260901161145 | 94 | 136 | 3.0 | 9.0 | 0.00 | 0.00 | 0.00 | 35 | 1018.5 |
| 20260901160642 | 94 | 234 | 6.0 | 6.0 | 0.00 | 0.00 | 0.00 | 35 | 1018.4 |
| 20260901160137 | 94 | 229 | 4.0 | 8.0 | 0.00 | 0.00 | 0.00 | 35 | 1018.4 |
| 20260901155636 | 93 | 259 | 2.0 | 8.0 | 0.00 | 0.00 | 0.00 | 36 | 1018.3 |
| 20260901155131 | 93 | 230 | 6.0 | 7.0 | 0.00 | 0.00 | 0.00 | 36 | 1018.3 |
| 20260901154626 | 92 | 227 | 2.0 | 7.0 | 0.00 | 0.00 | 0.00 | 37 | 1018.0 |
| 20260901154121 | 91 | 228 | 5.0 | 7.0 | 0.00 | 0.00 | 0.00 | 37 | 1018.3 |
| 20260901153616 | 91 | 251 | 6.0 | 9.0 | 0.00 | 0.00 | 0.00 | 38 | 1018.3 |
| 20260901153115 | 91 | 206 | 9.0 | 10.0 | 0.00 | 0.00 | 0.00 | 38 | 1018.3 |
| 20260901152610 | 91 | 272 | 3.0 | 5.0 | 0.00 | 0.00 | 0.00 | 38 | 1018.4 |
| 20260901152109 | 91 | 245 | 2.0 | 7.0 | 0.00 | 0.00 | 0.00 | 38 | 1018.3 |
| 20260901151605 | 91 | 187 | 4.0 | 6.0 | 0.00 | 0.00 | 0.00 | 38 | 1018.4 |
| 20260901151104 | 90 | 277 | 2.0 | 5.0 | 0.00 | 0.00 | 0.00 | 39 | 1018.2 |
| 20260901150603 | 90 | 233 | 9.0 | 10.0 | 0.00 | 0.00 | 0.00 | 39 | 1018.5 |
| 20260901145555 | 89 | 190 | 4.0 | 7.0 | 0.00 | 0.00 | 0.00 | 40 | 1018.2 |
| 20260901145054 | 88 | 307 | 2.0 | 8.0 | 0.00 | 0.00 | 0.00 | 40 | 1018.5 |
| 20260901144550 | 88 | 227 | 2.0 | 9.0 | 0.00 | 0.00 | 0.00 | 42 | 1018.4 |
| 20260901144044 | 88 | 271 | 3.0 | 5.0 | 0.00 | 0.00 | 0.00 | 41 | 1018.3 |
| 20260901143541 | 87 | 228 | 3.0 | 5.0 | 0.00 | 0.00 | 0.00 | 42 | 1018.3 |
| 20260901143037 | 85 | 191 | 1.0 | 5.0 | 0.00 | 0.00 | 0.00 | 45 | 1018.7 |
| 20260901142537 | 84 | 255 | 2.0 | 5.0 | 0.00 | 0.00 | 0.00 | 46 | 1018.6 |
| 20260901142032 | 83 | 273 | 0.0 | 5.0 | 0.00 | 0.00 | 0.00 | 47 | 1018.6 |